Location: Bratislava
(0.0000°N, 17.1167°E)
Time: 04:53:34
(UTC+01:00)

OAO 3 Rocket - Pass Details

Date: 24 January 2021
Orbit: 629 x 682 km, 35.0° (Epoch: 06 March)

Event Time Altitude Azimuth Distance (km) Brightness Sun altitude
Rises 18:25:15 0° 242° (WSW) 3,007 8.9 -5.1°
Reaches altitude 10° 18:27:41 10° 247° (WSW) 2,098 7.7 -5.7°
Maximum altitude 18:32:28 52° 323° (NW) 841 3.9 -6.8°
Drops below altitude 10° 18:37:16 10° 39° (NE) 2,106 5.3 -7.9°
Enters shadow 18:38:08 - 41° (NE) 2,431 5.6 -8.1°
